Home   Weather   Alofi   Past weeks
Flag for Niue

Past Weather in Alofi, Niue — Yesterday and Last 2 Weeks

Now
82 °F

Warm.


Feels Like: 91 °F
Forecast: 84 / 75 °F
Wind: 6 mph from North

Location: Alofi / Niue

Current Time: Apr 6, 2020 at 2:51:21 pm

Latest Report: Apr 6, 2020 at 2:00 pm


Visibility: N/A

Pressure: 29.77 "Hg

Humidity: 84%

Dew Point: 77 °F

Location of AlofiLocation

Past Weather in Alofi — Graph

°F

Alofi Temperature Yesterday

Maximum temperature yesterday: 84 °F (at 1:00 pm)
Minimum temperature yesterday: 75 °F (at 4:00 am)
Average temperature yesterday: 77 °F

High & Low Weather Summary for the Past Weeks

 TemperatureHumidityPressure
High88 °F (Mar 30, 2:00 pm)100% (Mar 23, 1:00 am)29.92 "Hg (Mar 23, 1:00 am)
Low66 °F (Mar 26, 4:00 am)66% (Mar 25, 12:00 pm)29.74 "Hg (Apr 1, 3:00 pm)
Average78 °F88%29.83 "Hg
* Reported Mar 22 1:00 pm — Apr 6 1:00 pm, Alofi. Weather by CustomWeather, © 2020

Note: Actual official high and low records may vary slightly from our data, if they occured in-between our weather recording intervals... More about our weather records

Alofi Weather History for the Previous 24 Hours

Scroll right to see more
 ConditionsComfort  
Time TempWeatherWind HumidityBarometerVisibility
1:00 pm
Mon, Apr 6
82 °FBroken clouds.6 mph84%29.77 "HgN/A
12:00 pm81 °FBroken clouds.3 mph89%N/AN/A
11:00 am79 °FDrizzle. Broken clouds.13 mph94%29.83 "HgN/A
10:00 am79 °FRain showers. Cloudy.7 mph94%29.83 "HgN/A
9:00 am79 °FWarm.6 mph94%29.83 "HgN/A
8:00 am77 °FCloudy.8 mph94%29.80 "HgN/A
7:00 am75 °FMild.5 mph100%29.80 "HgN/A
6:00 am75 °FDrizzle. Overcast.9 mph100%29.77 "HgN/A
5:00 am75 °FDrizzle. Overcast.12 mph100%29.77 "HgN/A
4:00 am75 °FDrizzle. Overcast.6 mph94%29.77 "HgN/A
3:00 am75 °FPartly cloudy.6 mph94%29.77 "HgN/A
2:00 am75 °FPartly cloudy.7 mph94%29.80 "HgN/A
1:00 am75 °FDrizzle. Overcast.3 mph94%29.83 "HgN/A
12:00 am75 °FMild.3 mph94%29.83 "HgN/A
11:00 pm
Sun, Apr 5
75 °FMild.5 mph94%29.83 "HgN/A
10:00 pm75 °FMild.6 mph94%29.83 "HgN/A
9:00 pm75 °FMild.3 mph94%29.83 "HgN/A
8:00 pm75 °FMild.3 mph94%29.80 "HgN/A
7:00 pm75 °FMild.7 mph94%29.80 "HgN/A
6:00 pm75 °FMild.6 mph100%29.80 "HgN/A
5:00 pm77 °FWarm.6 mph94%29.77 "HgN/A
4:00 pm75 °FMild.10 mph94%29.77 "HgN/A
3:00 pm77 °FWarm.10 mph94%29.77 "HgN/A
2:00 pm81 °FWarm.8 mph84%29.80 "HgN/A
Weather by CustomWeather, © 2020

See weather overview

Advertising